This demonstration page uses our WeatherBlox Daily Observations layout. Learn more.

39.08367, -84.50855

Hourly Observations for October 9, 2019

Temp ( °F °C ) Dew Point ( °F °C ) Humidity (%) Winds ( mph kmh ) Pressure ( in mb ) Visibility ( mi km ) Precip ( " mm )
12:53 am 00:53 Clear 47 8.3 46 7.8 97 97 Calm 30.16 1021 10 16.0934 0 0
1:53 am 01:53 Clear 48 8.9 47 8.3 96 96 Calm 30.16 1021 10 16.0934 0 0
2:53 am 02:53 Clear 48 8.9 47 8.3 96 96 N 3 6 30.15 1021 9 14.48406 0 0
3:53 am 03:53 Clear 46 7.8 45 7.2 96 96 ENE 3 6 30.15 1021 10 16.0934 0 0
4:13 am 04:13 Clear with Mist and Fog 46 7.8 46 7.8 100 100 Calm 30.17 1022 2 3.21868 0 0
4:27 am 04:27 Clear with Mist and Fog 46 7.8 45 7.2 96 96 Calm 30.17 1022 1.75 2.816345 0 0
4:30 am 04:30 Clear with Mist and Fog 46 7.8 45 7.2 96 96 Calm 30.17 1022 3 4.82802 0 0
4:53 am 04:53 Clear 46 7.8 45 7.2 96 96 NE 5 7 30.15 1021 8 12.87472 0 0
5:53 am 05:53 Clear 45 7.2 45 7.2 100 100 NE 3 6 30.17 1022 10 16.0934 0 0
6:53 am 06:53 Clear 46 7.8 45 7.2 96 96 Calm 30.18 1022 9 14.48406 0 0
7:53 am 07:53 Sunny 46 7.8 45 7.2 96 96 Calm 30.19 1023 10 16.0934 0 0
8:53 am 08:53 Sunny 51 10.6 48 8.9 89 89 ENE 3 6 30.21 1023 10 16.0934 0 0
9:53 am 09:53 Sunny 57 13.9 50 10 78 78 NE 5 7 30.22 1023 10 16.0934 0 0
10:53 am 10:53 Sunny 62 16.7 51 10.6 67 67 NE 8 13 30.21 1023 10 16.0934 0 0
11:53 am 11:53 Sunny 67 19.4 53 11.7 61 61 NE 8 13 30.19 1022 10 16.0934 0 0
12:53 pm 12:53 Mostly Sunny 71 21.7 54 12.2 55 55 NE 7 11 30.17 1022 10 16.0934 0 0
1:53 pm 13:53 Mostly Sunny 73 22.8 55 12.8 53 53 E 5 7 30.14 1021 10 16.0934 0 0
2:53 pm 14:53 Partly Cloudy 74 23.3 56 13.3 54 54 ESE 5 7 30.11 1020 10 16.0934 0 0
3:53 pm 15:53 Partly Cloudy 76 24.4 56 13.3 50 50 NE 5 7 30.11 1020 10 16.0934 0 0
4:53 pm 16:53 Partly Cloudy 74 23.3 56 13.3 54 54 E 3 6 30.09 1019 10 16.0934 0 0
5:53 pm 17:53 Sunny 74 23.3 55 12.8 52 52 ESE 3 6 30.1 1019 10 16.0934 0 0
6:53 pm 18:53 Mostly Sunny 69 20.6 58 14.4 68 68 Calm 30.1 1019 10 16.0934 0 0
7:53 pm 19:53 Clear 62 16.7 58 14.4 86 86 Calm 30.11 1020 10 16.0934 0 0
8:53 pm 20:53 Clear 58 14.4 57 13.9 97 97 Calm 30.13 1020 10 16.0934 0 0
9:53 pm 21:53 Clear 57 13.9 56 13.3 96 96 ENE 3 6 30.14 1021 10 16.0934 0 0
10:53 pm 22:53 Clear 56 13.3 55 12.8 97 97 Calm 30.14 1021 10 16.0934 0 0
11:47 pm 23:47 Clear with Mist and Fog 52 11 52 11 100 100 Calm 30.16 1021 1.5 2.41401 0 0
11:53 pm 23:53 Clear with Fog 51 10.6 51 10.6 100 100 Calm 30.15 1021 0.5 0.80467 0 0

Powered by AerisWeather